King Salmon, AK

5:53 PM AKDT on April 28, 2017 (GMT -0800)
King Salmon

Weather History for PAKN - February, 2014

Change the Weather History Date:

Tuesday, February 25, 2014

  Actual Average Record
Temperature  
Mean Temperature 36 °F 21 °F  
Max Temperature 41 °F 29 °F 46 °F (1997)
Min Temperature 30 °F 12 °F -35 °F (1954)
Degree Days  
Heating Degree Days 29 44  
Month to date heating degree days 1111 1160  
Since 1 July heating degree days 6279 7488  
Cooling Degree Days 0 0  
Month to date cooling degree days 0 0  
Year to date cooling degree days 0 0  
Moisture  
Dew Point 28 °F    
Average Humidity 0    
Maximum Humidity 0    
Minimum Humidity 0    
Precipitation  
Precipitation 0.00 in 0.03 in 0.32 in (1955)
Month to date precipitation 0.06 0.69  
Year to date precipitation 1.81 1.71  
Snow  
Snow 0.00 in 0.30 in - ()
Month to date snowfall 1.3 5.4  
Since 1 July snowfall 26.7 34.9  
Snow Depth 0.00 in    
Sea Level Pressure  
Sea Level Pressure 29.71 in    
Wind  
Wind Speed 15 mph (ENE)    
Max Wind Speed 40 mph    
Max Gust Speed 54 mph    
Visibility 10 miles    
Events      
T = Trace of Precipitation, MM = Missing Value Source: NWS Daily Summary

Daily Weather History Graph

Daily Weather History Graph

Search for Another Location

Airport or City:

Trip Planner

Search our weather history database for the weather conditions in past years. The results will help you decide how hot, cold, wet, or windy it might be!

Date:

Astronomy

Feb. 25, 2014 Rise Set
Actual Time 8:32 AM AKST 6:47 PM AKST
Civil Twilight 7:52 AM AKST 7:28 PM AKST
Nautical Twilight 7:06 AM AKST 8:14 PM AKST
Astronomical Twilight 6:19 AM AKST 9:01 PM AKST
Moon 6:16 AM AKST (2/25) 2:28 PM AKST (2/25)
Length of Visible Light 11h 35m
Length of Day
10h 14m
Waning Crescent, 17% of the Moon is Illuminated
Feb 25
Waning Crescent
Feb 28
New
Mar 8
First Quarter
Mar 16
Full
Mar 23
Last Quarter

Hourly Weather History & Observations

Time (AKST) Temp. Windchill Dew Point Humidity Pressure Visibility Wind Dir Wind Speed Gust Speed Precip Events Conditions
12:54 AM 32.0 °F 23.6 °F 29.7 °F 91% 29.84 in 10.0 mi East 10.4 mph - N/A   Partly Cloudy
1:54 AM 31.8 °F 24.6 °F 29.5 °F 91% 29.86 in 10.0 mi East 8.1 mph - N/A   Partly Cloudy
2:54 AM 30.2 °F - 28.4 °F 93% 29.87 in 10.0 mi Calm Calm - N/A   Partly Cloudy
3:54 AM 29.7 °F - 28.0 °F 94% 29.87 in 10.0 mi Calm Calm - N/A   Partly Cloudy
4:54 AM 30.9 °F 23.5 °F 29.1 °F 93% 29.86 in 10.0 mi ENE 8.1 mph - N/A   Partly Cloudy
5:54 AM 31.8 °F 26.2 °F 30.2 °F 94% 29.85 in 10.0 mi East 5.8 mph - N/A   Partly Cloudy
6:54 AM 32.9 °F 24.7 °F 30.2 °F 90% 29.85 in 10.0 mi NNE 10.4 mph - N/A   Partly Cloudy
7:54 AM 34.0 °F 26.0 °F 28.9 °F 82% 29.84 in 10.0 mi NE 10.4 mph - N/A   Scattered Clouds
8:54 AM 34.0 °F - 28.9 °F 82% 29.84 in 10.0 mi Calm Calm - N/A   Mostly Cloudy
9:54 AM 36.7 °F 27.6 °F 30.7 °F 79% 29.81 in 10.0 mi East 15.0 mph 25.3 mph N/A   Mostly Cloudy
10:54 AM 39.6 °F 30.0 °F 31.3 °F 72% 29.80 in 10.0 mi East 19.6 mph 29.9 mph N/A   Mostly Cloudy
11:54 AM 40.1 °F 32.4 °F 30.4 °F 68% 29.79 in 10.0 mi East 13.8 mph 23.0 mph N/A   Overcast
12:54 PM 41.2 °F 32.1 °F 30.2 °F 65% 29.76 in 10.0 mi East 19.6 mph 27.6 mph N/A   Mostly Cloudy
1:54 PM 41.5 °F 31.4 °F 28.9 °F 61% 29.73 in 10.0 mi ENE 25.3 mph 31.1 mph N/A   Mostly Cloudy
2:54 PM 41.5 °F 31.9 °F 28.9 °F 61% 29.70 in 10.0 mi East 23.0 mph 33.4 mph N/A   Mostly Cloudy
3:54 PM 39.0 °F 30.3 °F 28.6 °F 66% 29.66 in 10.0 mi ENE 16.1 mph 23.0 mph N/A   Mostly Cloudy
4:54 PM 38.5 °F 29.9 °F 26.4 °F 62% 29.61 in 10.0 mi ENE 15.0 mph 25.3 mph N/A   Mostly Cloudy
5:54 PM 38.1 °F 28.1 °F 25.2 °F 60% 29.57 in 10.0 mi NE 19.6 mph 31.1 mph N/A   Overcast
6:54 PM 36.7 °F 27.6 °F 26.1 °F 65% 29.54 in 10.0 mi NE 15.0 mph 23.0 mph N/A   Overcast
7:54 PM 37.4 °F 26.1 °F 25.7 °F 63% 29.52 in 10.0 mi NE 24.2 mph 35.7 mph N/A   Mostly Cloudy
8:54 PM 37.4 °F 26.6 °F 26.1 °F 64% 29.49 in 10.0 mi NE 21.9 mph 28.8 mph N/A   Mostly Cloudy
9:54 PM 37.9 °F 27.9 °F 26.2 °F 63% 29.48 in 10.0 mi NNE 19.6 mph 34.5 mph N/A   Mostly Cloudy
10:54 PM 39.4 °F 26.9 °F 28.0 °F 64% 29.46 in 10.0 mi East 34.5 mph 52.9 mph N/A   Overcast
11:54 PM 39.2 °F 26.6 °F 30.0 °F 70% 29.46 in 10.0 mi East 34.5 mph 50.6 mph N/A   Overcast